Location: Cahas Mountain Overlook
(37.0833°N, 80.1000°W)
Time: 18:51:50
(UTC-04:00)

Explorer 7 - Pass Details

Date: 12 February 2026
Orbit: 430 x 541 km, 50.2° (Epoch: 13 March)

Event Time Altitude Azimuth Distance (km) Brightness Sun altitude
Rises 00:03:15 0° 307° (NW) 2,643 - -65.6°
Reaches altitude 10° 00:05:26 10° 306° (NW) 1,768 - -65.7°
Maximum altitude 00:09:28 82° 220° (SW) 545 - -65.9°
Drops below altitude 10° 00:13:35 10° 133° (SE) 1,799 - -66.1°
Sets 00:15:50 0° 132° (SE) 2,693 - -66.2°
